CZ-3B DEB, 40838

Orbit data source: Space-Track

CZ-3B DEB, 40838 is space debris in HEO originally from a launch on Mon, 19 Dec 2011 UTC launched from the Xichang Space Center, China (XSC). Debris objects in space refer to the collection of defunct objects orbiting the Earth. Examples of debris include non-operational satellites, rocket bodies, and fragments generated from explosions, collisions, or faulty payload assembly.

Loading next visibility...
Identifier
40838, 2011-077T
Orbit
HEO
Country
Flag of CNCN / PRC
Related business
Manufacturer
CALT
Mission
Spacecraft
Bus & Motor
Unknown
Mass
Unknown
Launch date (UTC)
2011-12-19 (14 years ago)
Launch vehicle
Unknown
Launch site
Xichang Space Center, China (XSC)
Object type
Payload
Rocket body
Debris
Shape & HBR
Unknown shape, 0.2 m
Radar Cross Section
Medium (>0.1 m² and <1 m²)

Expand to show TLE details & history
Last TLE update: 4 weeks ago

TLE from 4 weeks ago
0 CZ-3B DEB
1 40838U 11077T   26099.70916430  .00001257  00000-0  67312-2 0  9991
2 40838  25.9430 246.3379 7478140 213.3967  61.8762  1.95859441 78904
Epoch: 2026-04-09T17:01Z
TLE epoch observation values (Epoch: 2026-04-09T17:01:11.795Z)
Latitude
0.00001°
Longitude
153.05263°
Altitude
25,320.114 km
Speed
3.221 km/s
True Right ascension
16h 25m 13s
True Declination
0° 00' 00"
Sunlit
Object was in daylight at epoch
Visualization orbit readout
Latitude
Unknown
Longitude
Unknown
Altitude
Unknown
Speed
Unknown
Apparent Right ascension
Unknown
Apparent Declination
Unknown
Sunlit
N/A
Visualization observer readout
Local Sidereal Time
03:28:08
Azimuth
Unknown
Elevation
Unknown
Doppler factor
Unknown
Orbital elements
Apogee altitude
40,791.766 km
Perigee altitude
427.844 km
Semi-major axis
26,987.942 km
Eccentricity
0.74781
Inclination
25.943°
RAAN
246.3379°
Arg. of periapsis
213.3967°
True anomaly
146.67806°
Mean anomaly
61.8762°
Eccentric anomaly
103.53314°
Mean motion
0.48954 °/min
Orbital period
735.38 mins
BSTAR
0.0067312
Loading maneuver chart data...
Computing Atmospheric mass density...
Loading historical data...
Loading historical data...
Loading historical data...
Loading historical data...
Loading historical data...
Loading historical data...
Loading historical data...

Documentation

Showing up to 5 results
|